View from above orbital plane
|
View from above satellite
|
Ground track
|
The orbit data is extracted from the following two-line orbital elements,
1 31126U 07012K 21015.46571011 .00000114 00000-0 34400-4 0 9998
2 31126 98.2056 316.1209 0091189 72.3002 288.8126 14.56871316730297
Epoch (UTC): | 15 January 2021 11:10:37 |
Eccentricity: | 0.0091189 |
inclination: | 98.2056° |
perigee height: | 639 km |
apogee height: | 768 km |
right ascension of ascending node: | 316.1209° |
argument of perigee: | 72.3002° |
revolutions per day: | 14.56871316 |
mean anomaly at epoch: | 288.8126° |
orbit number at epoch: | 73029 |
The dashed part of the orbit path shows where the satellite is in the earth's shadow,
|
|